Location: San Martino di Castrozza
(46.2667°N, 11.8000°E)
Time: 16:07:46
(UTC+00:00)

Cosmos 372 Rocket - Pass Details

Date: 23 April 2021
Orbit: 739 x 767 km, 74.1° (Epoch: 13 May)

Event Time Altitude Azimuth Distance (km) Brightness Sun altitude
Exits shadow 02:05:10 36° 201° (SSW) 1,163 4.5 -19.4°
Maximum altitude 02:07:18 89° 287° (WNW) 750 3.9 -19.1°
Drops below altitude 10° 02:12:26 10° 22° (NNE) 2,261 7.4 -18.5°
Sets 02:14:47 0° 22° (NNE) 3,186 8.4 -18.2°
